Tracking 19906 objects as of 24-Oct-2019
HD Live streaming from Space Station
objects crossing your sky now

THOR ABLESTAR R/B

Track THOR ABLESTAR R/B now!
10-day predictions


NORAD ID: 204
Int'l Code: 1961-031C
Perigee: 952.3 km
Apogee: 1,098.1 km
Inclination: 32.4 °
Period: 105.5 minutes
Semi major axis: 7396 km
RCS: 3.5845 m2 (large)
Launch date: November 15, 1961
Source: United States (US)
Launch site: AIR FORCE EASTERN TEST RANGE (AFETR)

Note: This is a ROCKET BODY
aabbcc
Your satellite tracking list
Your tracking list is empty




NASA's NSSDC Master Catalog

Two Line Element Set (TLE):
1   204U 61031C   19296.68186240 +.00000039 +00000-0 +18530-4 0  9992
2   204 032.4439 005.2320 0098607 190.5750 169.2793 13.64868832891028
Source of the keplerian elements: AFSPC